Wind_Speed
9 4 15 18 15 12 6 6 2 4 7 12 17 27 24 21 27 29 36 40 44 44 48 46 51 46 44 44 41 31 26 30 33 29 31 35 34 31 29 24 21 19 18 19
3 17 7 1 3 9 12 10 8 6 11 5 10 17 17 14 16 25 27 29 34 35 47 37 35 37 39 29 28 27 30 30 34 30 30 33 32 29 23 21 20 20 20 15
8 6 5 11 6 10 7 8 9 8 9 18 12 18 15 12 15 26 29 36 34 36 38 42 39 34 37 34 27 29 27 24 29 30 32 30 22 19 20 21 21 23 17 10
6 7 10 7 6 15 15 4 9 4 5 9 0 16 20 18 23 20 19 33 34 41 44 41 37 37 37 34 31 28 25 23 28 28 25 26 25 25 24 19 14 13 10 10
8 6 3 10 10 8 7 12 11 10 8 4 4 4 24 5 17 20 20 30 41 46 47 47 46 39 30 24 26 26 24 23 23 20 19 20 21 22 18 17 14 12 11 13
17 14 9 7 8 8 6 4 8 9 2 5 11 9 24 9 16 12 10 22 28 29 26 25 27 28 27 21 28 25 23 19 17 15 14 15 19 21 20 17 15 14 14 16
5 15 7 8 6 5 5 3 1 2 3 12 12 11 25 7 4 4 8 18 27 27 29 27 26 24 23 19 25 23 20 19 16 15 17 17 19 19 18 17 15 15 15 16
1 3 9 6 11 7 7 9 4 6 5 5 11 13 11 10 15 25 25 27 27 29 28 31 30 25 19 24 23 21 19 19 19 19 20 19 18 17 14 13 13 12 12 12
4 3 2 2 1 5 2 4 9 4 3 2 7 9 13 21 18 9 12 16 24 28 28 19 15 17 24 25 22 20 20 22 22 21 21 19 17 14 13 14 12 11 11 8
4 0 4 5 3 6 5 3 3 1 5 5 5 8 12 6 23 3 9 10 17 17 14 14 18 24 24 23 23 21 21 25 24 23 20 18 15 13 12 11 10 9 7 7
3 1 3 2 4 3 2 2 4 3 5 4 3 6 7 12 8 9 14 22 19 20 19 22 25 26 25 25 25 24 26 27 25 22 18 16 13 10 9 7 8 8 9 8
3 2 4 8 7 8 2 4 3 3 6 8 2 7 8 6 6 9 14 28 14 23 25 27 28 28 27 27 28 27 27 26 23 19 16 13 11 9 8 7 7 9 10 9
2 1 3 7 3 4 1 5 5 3 1 10 5 7 8 8 11 13 7 2 16 28 28 30 29 28 28 31 30 29 26 23 20 17 16 14 10 6 7 7 7 9 9 8
5 3 4 4 7 6 9 11 5 4 3 6 20 13 30 12 13 16 14 8 12 28 32 32 29 29 32 30 30 28 25 22 20 18 16 11 8 6 6 9 6 14 11 5
6 5 5 9 12 14 15 16 17 12 8 7 7 7 21 9 14 13 20 15 19 19 32 32 31 32 31 29 29 27 24 23 22 20 15 12 9 6 9 13 13 12 9 6
3 4 3 9 10 19 18 19 18 17 17 13 13 19 14 7 18 16 18 22 23 21 27 32 33 33 32 31 29 26 24 24 21 18 16 9 7 7 12 14 11 10 10 6
6 4 1 6 10 11 12 20 22 15 12 12 10 8 7 13 8 6 7 22 28 30 30 36 35 33 32 31 28 26 24 23 20 17 13 9 6 11 13 16 12 10 10 8
4 4 4 5 5 6 4 9 8 15 12 13 7 11 14 12 8 3 6 11 20 25 26 36 34 32 30 28 26 25 24 21 18 16 14 11 9 10 12 18 13 12 10 8
15 7 3 3 3 8 8 7 5 4 2 6 6 8 8 4 6 3 2 6 5 23 28 33 32 31 30 27 26 26 25 21 19 18 14 11 10 11 14 16 17 13 12 9
10 14 7 3 3 4 3 7 13 10 5 6 11 10 10 8 3 3 7 4 2 11 27 32 30 32 31 29 29 27 26 22 20 19 15 12 11 12 12 13 14 13 11 10
1 2 9 7 4 5 4 12 14 6 2 16 17 18 16 4 5 1 5 9 4 11 24 32 33 33 31 31 31 28 27 25 19 17 16 14 13 11 11 11 10 10 11 10
3 3 2 3 5 3 12 14 3 5 10 10 20 21 16 0 10 8 10 2 16 16 31 34 34 34 32 33 31 28 28 24 21 19 17 15 13 13 11 10 10 10 10 11
3 3 2 2 2 3 16 19 13 9 8 8 17 22 8 14 22 21 14 7 8 26 35 35 36 34 34 35 32 27 25 25 24 20 20 17 15 12 10 9 9 9 9 10
3 4 3 4 3 5 12 16 24 29 27 28 24 11 4 31 24 26 22 5 3 21 35 37 37 34 36 36 31 24 25 24 23 21 21 18 17 14 10 8 7 4 6 9
2 5 6 4 5 12 14 22 23 28 31 35 14 9 30 36 31 27 19 18 16 12 23 33 34 34 35 35 32 26 25 27 24 19 21 21 19 14 10 9 10 6 4 4
3 4 3 3 14 7 14 17 14 17 26 30 18 19 33 36 35 27 23 21 20 10 16 21 29 31 32 32 32 28 27 29 25 21 21 22 22 17 11 8 12 10 7 5
Wind_Direction
195 166 212 209 223 272 339 301 15 337 227 218 225 250 257 255 254 258 260 263 265 267 275 280 286 286 284 284 282 274 247 249 240 241 237 239 242 243 243 233 225 222 228 234
295 231 222 94 199 232 261 275 277 281 270 272 280 273 281 267 258 258 261 260 260 271 278 280 288 289 283 290 279 255 244 251 247 237 239 239 239 235 233 221 217 221 222 221
231 260 238 236 249 248 235 227 254 246 310 299 304 286 272 262 255 256 255 260 263 264 272 279 285 286 293 293 262 240 245 243 236 235 234 234 230 216 201 199 209 211 213 221
246 235 245 258 238 229 253 230 254 261 211 259 337 289 274 270 266 260 250 258 263 269 269 272 274 281 284 280 247 243 235 242 236 233 232 229 223 204 199 204 213 208 219 207
231 284 251 236 240 230 250 236 251 227 241 274 254 290 278 244 260 250 248 249 253 261 267 271 272 276 290 271 243 232 236 234 230 230 223 222 216 210 201 195 198 217 211 217
231 242 244 219 252 245 253 224 229 225 132 250 224 203 275 238 251 248 240 251 256 265 271 269 277 280 280 262 234 226 219 213 210 206 202 202 197 195 195 194 197 201 216 226
345 230 257 227 236 252 177 85 254 138 190 229 199 201 238 268 276 256 255 263 271 275 281 283 280 280 277 231 203 198 195 190 183 180 175 180 189 191 190 189 195 202 216 218
105 240 184 211 200 200 191 164 185 182 183 226 249 233 244 231 259 260 262 269 277 282 281 281 276 261 219 187 185 182 176 171 165 166 170 175 177 172 178 193 198 204 213 230
259 239 51 55 54 150 226 162 216 360 240 223 232 276 281 271 269 277 271 283 278 269 276 275 239 199 177 175 175 172 165 159 159 164 169 172 176 182 189 183 194 211 237 247
267 337 359 13 355 211 169 205 100 138 224 238 258 253 233 251 251 279 273 252 273 251 230 204 180 167 165 167 164 160 161 159 162 165 169 171 172 175 188 201 212 217 221 192
320 84 278 14 220 209 283 197 210 195 210 223 290 259 205 213 271 324 300 294 277 208 193 173 166 160 160 161 159 159 161 161 162 168 172 177 176 180 181 198 203 195 168 159
351 197 238 235 240 248 272 246 170 197 231 251 256 265 276 295 321 303 303 307 208 186 172 164 162 158 159 161 160 160 163 162 163 166 169 173 158 155 175 172 166 169 159 162
284 297 319 339 18 53 204 246 214 252 289 248 226 251 316 14 333 328 355 53 154 161 163 161 162 161 161 159 160 163 164 165 165 162 156 147 151 169 173 174 171 161 159 160
147 218 193 203 264 317 295 287 269 203 245 252 244 288 279 316 334 320 303 161 156 157 164 162 164 162 161 161 163 164 164 166 163 161 164 161 176 177 181 168 152 163 152 151
162 227 217 245 261 283 276 263 265 244 237 240 303 288 272 311 298 302 293 167 157 168 163 167 165 164 163 162 163 162 163 161 156 163 168 179 182 188 182 167 147 152 150 176
191 251 247 272 256 257 277 254 252 255 252 254 261 274 277 271 307 313 253 169 166 177 168 169 168 168 166 165 163 162 163 166 170 174 180 179 205 205 180 174 166 172 171 169
187 203 247 258 287 301 280 231 224 228 231 216 228 257 332 312 315 321 292 181 174 174 178 173 173 173 171 170 165 165 162 167 177 185 175 193 191 181 176 171 169 176 179 171
218 170 197 285 310 249 260 18 205 216 232 233 270 283 291 250 224 264 36 171 174 172 187 176 174 174 174 173 169 167 171 172 182 182 185 179 164 169 177 180 178 175 174 171
209 203 244 249 238 293 241 41 11 359 245 28 294 315 324 290 285 76 24 72 150 192 193 187 173 173 173 171 169 173 179 178 184 180 189 177 165 173 176 185 194 191 188 181
196 201 192 204 279 293 48 347 341 314 261 353 343 337 319 292 202 239 41 173 163 206 203 192 180 179 176 176 178 177 181 179 185 190 181 168 167 165 160 166 179 190 198 208
71 186 219 226 244 258 344 326 318 192 313 318 335 325 318 232 208 170 24 179 328 247 210 198 191 184 181 182 183 183 186 188 182 180 176 167 177 173 165 170 184 191 205 209
320 293 247 200 226 266 356 328 259 319 310 322 338 314 313 239 135 107 50 126 317 239 204 203 197 193 190 188 187 189 192 184 186 183 174 170 182 183 177 188 194 200 210 213
323 316 288 311 270 278 293 245 291 324 324 337 312 321 317 86 102 107 121 196 282 195 201 204 200 196 196 194 192 192 191 185 189 192 185 182 188 189 191 195 198 201 208 214
275 332 322 310 330 280 294 4 358 13 350 339 332 297 110 78 78 88 120 197 150 185 197 201 200 197 196 196 197 197 189 187 193 199 196 190 195 192 193 193 191 188 178 189
267 314 322 303 307 331 355 4 1 343 348 351 16 120 78 76 66 65 91 66 89 147 201 196 197 197 197 196 198 196 189 189 197 203 202 199 199 192 178 176 181 168 152 161
3 312 343 312 310 330 323 326 2 351 353 349 30 63 70 73 64 59 58 55 67 100 173 188 204 199 200 200 199 195 192 194 198 202 202 202 199 194 187 180 183 164 158 169
Height
1443 1449 1442 1435 1439 1441 1445 1447 1449 1443 1438 1440 1437 1424 1423 1427 1426 1423 1419 1418 1417 1414 1416 1415 1415 1413 1411 1411 1410 1409 1412 1413 1415 1418 1419 1420 1421 1423 1428 1433 1439 1443 1447 1449
1444 1435 1437 1437 1440 1444 1446 1450 1452 1447 1442 1441 1435 1428 1419 1419 1416 1414 1412 1410 1408 1408 1408 1408 1406 1405 1404 1402 1401 1403 1406 1408 1410 1412 1412 1413 1415 1419 1424 1431 1436 1440 1442 1447
1446 1437 1434 1438 1441 1443 1445 1448 1450 1453 1444 1436 1439 1425 1416 1408 1406 1405 1402 1401 1400 1399 1399 1400 1400 1399 1398 1396 1395 1397 1401 1403 1405 1406 1407 1409 1414 1419 1423 1428 1433 1437 1441 1444
1439 1432 1433 1436 1437 1441 1445 1441 1443 1444 1451 1455 1435 1434 1413 1403 1397 1396 1397 1392 1390 1390 1391 1392 1393 1392 1390 1390 1391 1394 1396 1398 1399 1402 1405 1408 1409 1414 1419 1425 1430 1435 1439 1442
1435 1431 1431 1433 1433 1434 1438 1438 1440 1442 1446 1448 1445 1455 1379 1392 1392 1384 1382 1384 1380 1381 1383 1384 1386 1385 1383 1382 1386 1389 1392 1393 1397 1399 1403 1407 1411 1416 1420 1425 1430 1433 1437 1440
1428 1427 1427 1429 1428 1430 1431 1434 1437 1440 1449 1460 1437 1449 1383 1390 1378 1374 1376 1376 1374 1375 1375 1376 1377 1377 1376 1377 1380 1384 1388 1391 1395 1398 1402 1407 1412 1416 1419 1424 1428 1432 1435 1439
1424 1425 1423 1423 1429 1426 1430 1439 1453 1460 1460 1439 1422 1435 1380 1378 1374 1374 1373 1370 1369 1371 1371 1369 1370 1369 1370 1371 1376 1381 1385 1389 1394 1399 1404 1409 1413 1416 1420 1424 1428 1431 1434 1437
1435 1430 1419 1416 1421 1426 1429 1436 1447 1444 1443 1432 1418 1412 1382 1367 1364 1363 1364 1364 1364 1363 1363 1362 1363 1364 1365 1370 1376 1381 1385 1388 1394 1399 1405 1410 1413 1416 1420 1424 1427 1430 1433 1435
1432 1423 1413 1415 1415 1419 1423 1431 1423 1433 1427 1436 1412 1389 1374 1362 1361 1362 1358 1359 1358 1358 1358 1357 1358 1361 1366 1372 1378 1382 1385 1390 1395 1400 1406 1410 1414 1417 1420 1424 1427 1430 1431 1433
1431 1431 1421 1417 1416 1415 1418 1417 1432 1437 1436 1434 1410 1397 1376 1363 1355 1363 1361 1357 1354 1354 1354 1356 1360 1363 1370 1375 1379 1383 1388 1393 1397 1403 1408 1412 1415 1418 1421 1424 1427 1429 1430 1431
1432 1432 1427 1421 1420 1421 1421 1422 1422 1422 1426 1424 1416 1391 1362 1364 1361 1363 1355 1350 1349 1350 1352 1356 1362 1367 1372 1377 1381 1386 1390 1395 1400 1405 1410 1413 1416 1418 1421 1424 1426 1428 1430 1431
1433 1437 1437 1423 1415 1412 1416 1416 1418 1426 1419 1411 1412 1383 1353 1358 1360 1361 1351 1344 1342 1348 1354 1359 1365 1368 1373 1378 1382 1387 1393 1397 1402 1407 1411 1414 1417 1419 1422 1424 1426 1428 1430 1432
1435 1439 1438 1425 1416 1416 1419 1416 1416 1419 1419 1412 1413 1382 1354 1364 1364 1359 1355 1352 1350 1348 1357 1362 1368 1370 1375 1379 1385 1390 1395 1400 1404 1408 1412 1415 1417 1420 1422 1424 1426 1428 1430 1432
1433 1436 1432 1437 1430 1426 1427 1418 1415 1417 1424 1405 1385 1386 1357 1370 1370 1364 1358 1355 1357 1353 1359 1363 1369 1372 1377 1381 1386 1392 1397 1401 1405 1408 1412 1415 1418 1420 1423 1424 1425 1428 1431 1433
1431 1434 1431 1427 1425 1426 1423 1419 1414 1411 1408 1409 1390 1389 1365 1373 1369 1363 1356 1355 1357 1362 1360 1365 1369 1374 1378 1384 1389 1394 1398 1402 1405 1409 1413 1416 1419 1421 1423 1425 1427 1430 1432 1433
1430 1432 1425 1422 1421 1419 1417 1409 1406 1401 1397 1394 1392 1380 1371 1367 1363 1359 1351 1351 1354 1362 1363 1365 1370 1375 1379 1384 1389 1394 1398 1402 1406 1410 1413 1417 1419 1420 1423 1425 1428 1430 1432 1434
1430 1428 1429 1422 1409 1414 1402 1384 1387 1386 1387 1386 1388 1374 1366 1364 1360 1358 1352 1348 1349 1356 1362 1362 1368 1375 1380 1385 1390 1394 1398 1402 1406 1410 1413 1416 1418 1420 1422 1425 1428 1430 1432 1434
1423 1425 1427 1416 1416 1412 1377 1375 1374 1377 1375 1374 1373 1370 1368 1359 1359 1355 1353 1352 1355 1358 1366 1362 1368 1375 1382 1387 1391 1395 1399 1402 1406 1410 1414 1416 1418 1420 1422 1426 1428 1430 1432 1434
1412 1419 1419 1416 1406 1395 1380 1385 1387 1384 1374 1376 1373 1368 1363 1358 1358 1355 1352 1353 1357 1360 1365 1368 1368 1375 1382 1387 1392 1395 1399 1403 1407 1410 1413 1416 1418 1420 1422 1425 1428 1430 1432 1434
1401 1407 1412 1408 1406 1390 1385 1390 1391 1388 1379 1375 1370 1365 1362 1359 1361 1355 1351 1352 1357 1362 1365 1369 1371 1376 1381 1387 1391 1395 1399 1403 1407 1410 1413 1416 1419 1421 1422 1425 1428 1430 1431 1433
1404 1407 1405 1405 1404 1390 1391 1393 1390 1380 1378 1373 1367 1361 1358 1355 1353 1351 1347 1350 1355 1358 1364 1368 1372 1375 1380 1386 1391 1395 1399 1403 1407 1410 1414 1417 1419 1422 1423 1425 1428 1430 1431 1433
1408 1404 1394 1396 1392 1386 1394 1389 1379 1382 1376 1373 1367 1363 1360 1354 1349 1349 1343 1341 1348 1354 1361 1367 1372 1376 1380 1386 1390 1394 1398 1403 1407 1411 1415 1417 1420 1422 1424 1426 1427 1429 1430 1432
1408 1409 1405 1403 1396 1399 1392 1387 1382 1378 1376 1375 1371 1362 1359 1355 1351 1350 1352 1359 1358 1355 1360 1365 1370 1375 1381 1385 1390 1394 1399 1403 1407 1411 1415 1418 1421 1423 1425 1426 1427 1428 1430 1431
1410 1406 1403 1400 1396 1392 1387 1384 1374 1369 1373 1367 1365 1360 1360 1349 1351 1351 1362 1362 1358 1355 1357 1362 1368 1373 1379 1384 1389 1394 1399 1403 1407 1410 1414 1418 1421 1424 1426 1427 1428 1429 1429 1431
1414 1410 1405 1400 1396 1390 1387 1384 1381 1374 1366 1359 1361 1362 1355 1350 1352 1353 1356 1361 1354 1354 1362 1362 1366 1371 1377 1382 1388 1393 1398 1403 1407 1410 1413 1418 1421 1424 1426 1427 1429 1430 1432 1433
1415 1411 1407 1406 1400 1397 1394 1392 1387 1385 1375 1365 1365 1363 1357 1354 1354 1357 1361 1361 1355 1361 1359 1362 1368 1371 1376 1381 1388 1393 1398 1402 1406 1409 1413 1417 1421 1424 1426 1428 1429 1431 1433 1434